Lexington Weather

Lexington, Massachusetts, USA

73°F
8/7/2020 11:37am 
  • Lexington Conditions: Clear
  • Temperature: 73.2°F / 22.9°CWarmer 2.5°F than last hour.
  • Dew Point: 63.7°FIncreased 0.9°Fsince last hour.
  • Relative Humidity: 72%Decreased 4.0% since last hour.
  • Wind: Calm, 10-min avg: Calm, gust: 2 mph
  • Barometer: 30.13 inFalling 0.02  inHg/hr Falling Slowly
  • Visibility: 10 miles
  • Rain Today: 0.00 in
  •   

Regional Weather Roundup
for Boston / Norton, MA

        
000
ASUS41 KBOX 010805
RWRBOX

REGIONAL WEATHER ROUNDUP
NATIONAL WEATHER SERVICE BOSTON/NORTON MA
400 AM EDT SAT AUG 01 2020

NOTE:  "FAIR" INDICATES FEW OR NO CLOUDS BELOW 12,000 FEET WITH NO 
SIGNIFICANT WEATHER AND/OR OBSTRUCTIONS TO VISIBILITY.

MAZALL-010900-
EASTERN MASSACHUSETTS
  
CITY           SKY/WX    TMP DP  RH WIND       PRES   REMARKS
BOSTON         PTCLDY    72  63  73 NW6       29.85S                  
BEVERLY        CLEAR     64  62  93 N3        29.84F                  
LAWRENCE       CLEAR     66  63  90 CALM      29.87F                  
BEDFORD        CLEAR     64  61  90 CALM      29.85S                  
BLUE HILL      NOT AVBL                                               
NORWOOD        PTCLDY    62  59  90 CALM      29.85S FOG              
MARSHFIELD     CLEAR     66  66 100 CALM      29.84S                  
PLYMOUTH       CLEAR     62  61  96 CALM      29.85F                  
TAUNTON        PTCLDY    61  58  90 CALM      29.84S FOG              
NEW BEDFORD    CLEAR     62  62 100 CALM      29.84S                  
$$

MAZALL-010900-
CAPE COD AND THE ISLANDS
  
CITY           SKY/WX    TMP DP  RH WIND       PRES   REMARKS
FALMOUTH       CLEAR     64  64 100 CALM      29.84F                  
HYANNIS        CLEAR     67  65  93 CALM      29.82F                  
CHATHAM        CLEAR     67  65  93 CALM      29.84F FOG              
PROVINCETOWN   CLEAR     69  68  96 NW6       29.85S                  
NANTUCKET      CLEAR     67  65  93 N9        29.83S                  
MARTHAS VNYRD  FOG       64  64 100 NW5       29.83F VSB 1/4          
$$
 
MAZALL-010900-
CENTRAL AND WESTERN MASSACHUSETTS
  
CITY           SKY/WX    TMP DP  RH WIND       PRES   REMARKS
WORCESTER      CLEAR     69  63  81 NW7       29.89F                  
FITCHBURG      CLEAR     63  60  90 N3        29.88S                  
ORANGE         CLEAR     62  60  93 NE3       29.90S                  
SPRINGFIELD    CLEAR     62  61  98 CALM      29.86S                  
WESTFIELD      CLEAR     63  62  97 N3        29.87F                  
NORTH ADAMS    CLEAR     58  56  93 CALM      29.92S                  
PITTSFIELD     CLEAR     60  58  92 CALM      29.91S                  
$$
 
RIZALL-010900-
RHODE ISLAND
  
CITY           SKY/WX    TMP DP  RH WIND       PRES   REMARKS
PROVIDENCE     CLEAR     69  67  93 CALM      29.85F                  
NEWPORT        CLEAR     67  65  93 CALM      29.85S                  
BLOCK ISLAND   CLEAR     67  65  93 CALM      29.85F                  
SMITHFIELD     CLEAR     65  65 100 CALM      29.87S                  
WESTERLY       CLEAR     65  62  90 CALM      29.85F                  
$$
 
CTZALL-010900-
CONNECTICUT
  
CITY           SKY/WX    TMP DP  RH WIND       PRES   REMARKS
BRADLEY INTL   CLEAR     66  60  81 N5        29.86S                  
HARTFORD       CLEAR     71  62  73 N5        29.85F                  
BRIDGEPORT     CLEAR     70  65  84 CALM      29.85F                  
DANBURY        CLEAR     63  62  97 CALM      29.89S                  
GROTON         CLEAR     66  65  96 N3        29.84F                  
NEW HAVEN      CLEAR     70  68  93 CALM      29.85F                  
CHESTER        FAIR      68  68 100 NW3       29.86F                  
MERIDEN        CLEAR     67  65  93 NW3       29.86S FOG              
WILLIMANTIC    CLOUDY    67  65  93 CALM      29.86F                  
OXFORD         CLEAR     65  64  97 CALM      29.89F                  
$$

MEZ002-015-021-024-NHZ003-005-008-011-012-014-VTZ005-008-010900-
NORTHERN NEW ENGLAND
  
CITY           SKY/WX    TMP DP  RH WIND       PRES   REMARKS
PORTLAND ME    CLEAR     69  62  78 W3        29.85S                  
BANGOR ME      CLEAR     61  58  90 CALM      29.86R                  
CONCORD NH     CLEAR     61  58  90 CALM      29.88S                  
MANCHESTER NH  CLEAR     69  63  81 N5        29.85S                  
NASHUA NH      CLEAR     65  64  97 NW5       29.87F                  
PORTSMOUTH NH  NOT AVBL                                               
JAFFREY NH     CLEAR     59  56  89 CALM      29.91F                  
KEENE NH       CLEAR     58  58 100 CALM      29.91R                  
BURLINGTON VT  CLEAR     64  59  83 E3        29.91S                  
MT. WASHINGTON CLEAR     48  43  81 NW13        N/A                   
$$

NYZ052-076-010900-
EASTERN NEW YORK
  
CITY           SKY/WX    TMP DP  RH WIND       PRES   REMARKS
ALBANY         MOCLDY    67  62  84 N3        29.90S                  
NEW YORK CITY  PTCLDY    78  68  71 CALM      29.84F                  
$$
 
ANZALL-010900-
MARINE OBSERVATIONS
  
STATION/POSITION TIME  TEMP    WIND        PRES    VSBY  WAVE
                       AIR SEA DIR/SP/G                  HT/PER
                 (UTC) (F)     (DEG/KT/KT) (MB)    (MI)  (FT/S)
BOSTON BUOY      0750   72 73  320/  6/  8 1009.4F         1/10
BUZZARDS BAY     0700          330/  5/  5 1011.6F
NANTUCKET SOUND  0740      76  320/ 10/ 12 1009.6S
MASS BAY-STELLWA NOT AVBL
ISLE OF SHOALS   0700   70     350/  9/ 10 1010.4S
S OF BLOCK IS    0726      76                N/A           3/ 8
$$

......................KEY.........................
  SKY/WX - SKY CONDITION/PRESENT WEATHER
  TMP    - TEMPERATURE IN FAHRENHEIT
  DWPT   - DEWPOINT IN FAHRENHEIT
  RH     - RELATIVE HUMIDITY IN PERCENT
  WIND   - DIRECTION AND SPEED IN MPH
  PRES   - MEAN SEA LEVEL PRESSURE IN INCHES OF HG
  WCI    - WIND CHILL INDEX
  VSB    - VISIBILITY IN MILES
  HX     - HEAT INDEX
  TC     - TEMPERATURE IN CELSIUS
  VRB    - VARIABLE WIND DIRECTION
  N/A    - NOT AVAILABLE
  
      

Other recent Regional Weather Roundups

Fri Aug 7, 11:04am

Fri Aug 7, 10:04am

Fri Aug 7, 9:04am

Fri Aug 7, 8:04am

Fri Aug 7, 7:04am

Fri Aug 7, 6:04am

Fri Aug 7, 5:04am

Fri Aug 7, 4:04am

Fri Aug 7, 3:04am

Fri Aug 7, 2:04am

Fri Aug 7, 1:05am

Fri Aug 7, 12:04am

Thu Aug 6, 11:04pm

Thu Aug 6, 10:04pm

Thu Aug 6, 9:04pm

Thu Aug 6, 8:04pm

Thu Aug 6, 7:04pm

Thu Aug 6, 6:04pm

Thu Aug 6, 5:04pm

Thu Aug 6, 4:05pm

Thu Aug 6, 3:04pm

Thu Aug 6, 2:05pm

Thu Aug 6, 1:04pm

Thu Aug 6, 12:04pm

Thu Aug 6, 11:04am

Thu Aug 6, 10:04am

Thu Aug 6, 9:04am

Thu Aug 6, 8:04am

Thu Aug 6, 7:04am

Thu Aug 6, 6:04am

Thu Aug 6, 5:04am

Thu Aug 6, 4:04am

Thu Aug 6, 3:04am

Thu Aug 6, 2:05am

Thu Aug 6, 1:04am

Thu Aug 6, 12:04am

Wed Aug 5, 11:04pm

Wed Aug 5, 10:04pm

Wed Aug 5, 9:04pm

Wed Aug 5, 8:05pm

Wed Aug 5, 7:04pm

Wed Aug 5, 6:04pm

Wed Aug 5, 5:04pm

Wed Aug 5, 4:05pm

Wed Aug 5, 3:04pm

Wed Aug 5, 2:04pm

Wed Aug 5, 1:04pm

Wed Aug 5, 12:04pm

Wed Aug 5, 11:04am

Wed Aug 5, 10:04am

Wed Aug 5, 9:04am

Wed Aug 5, 8:04am

Wed Aug 5, 7:04am

Wed Aug 5, 6:04am

Wed Aug 5, 5:04am

Wed Aug 5, 4:04am

Wed Aug 5, 3:04am

Wed Aug 5, 2:05am

Wed Aug 5, 1:04am

Wed Aug 5, 12:05am

Tue Aug 4, 11:05pm

Tue Aug 4, 10:05pm

Tue Aug 4, 9:04pm

Tue Aug 4, 8:04pm

Tue Aug 4, 7:05pm

Tue Aug 4, 6:05pm

Tue Aug 4, 5:05pm

Tue Aug 4, 4:05pm

Tue Aug 4, 3:04pm

Tue Aug 4, 2:05pm

Tue Aug 4, 1:04pm

Tue Aug 4, 12:05pm

Tue Aug 4, 11:04am

Tue Aug 4, 10:04am

Tue Aug 4, 9:04am

Tue Aug 4, 8:04am

Tue Aug 4, 7:04am

Tue Aug 4, 6:04am

Tue Aug 4, 5:04am

Tue Aug 4, 4:04am

Tue Aug 4, 3:04am

Tue Aug 4, 2:04am

Tue Aug 4, 1:04am

Tue Aug 4, 12:04am

Mon Aug 3, 11:04pm

Mon Aug 3, 10:04pm

Mon Aug 3, 9:04pm

Mon Aug 3, 8:05pm

Mon Aug 3, 7:04pm

Mon Aug 3, 6:04pm

Mon Aug 3, 5:04pm

Mon Aug 3, 4:05pm

Mon Aug 3, 3:04pm

Mon Aug 3, 2:04pm

Mon Aug 3, 1:04pm

Mon Aug 3, 12:05pm

Mon Aug 3, 11:04am

Mon Aug 3, 10:04am

Mon Aug 3, 9:05am

Mon Aug 3, 8:04am

Mon Aug 3, 7:04am

Mon Aug 3, 6:04am

Mon Aug 3, 5:04am

Mon Aug 3, 4:04am

Mon Aug 3, 3:04am

Mon Aug 3, 2:04am

Mon Aug 3, 1:04am

Mon Aug 3, 12:05am

Sun Aug 2, 11:04pm

Sun Aug 2, 10:04pm

Sun Aug 2, 9:04pm

Sun Aug 2, 8:04pm

Sun Aug 2, 7:04pm

Sun Aug 2, 6:04pm

Sun Aug 2, 5:04pm

Sun Aug 2, 4:05pm

Sun Aug 2, 3:04pm

Sun Aug 2, 2:05pm

Sun Aug 2, 1:04pm

Sun Aug 2, 12:04pm

Sun Aug 2, 11:04am

Sun Aug 2, 10:04am

Sun Aug 2, 9:05am

Sun Aug 2, 8:05am

Sun Aug 2, 7:04am

Sun Aug 2, 6:04am

Sun Aug 2, 5:04am

Sun Aug 2, 4:05am

Sun Aug 2, 3:04am

Sun Aug 2, 2:04am

Sun Aug 2, 1:04am

Sun Aug 2, 12:05am

Sat Aug 1, 11:04pm

Sat Aug 1, 10:04pm

Sat Aug 1, 9:04pm

Sat Aug 1, 8:05pm

Sat Aug 1, 7:04pm

Sat Aug 1, 6:04pm

Sat Aug 1, 5:05pm

Sat Aug 1, 4:05pm

Sat Aug 1, 3:04pm

Sat Aug 1, 2:04pm

Sat Aug 1, 1:04pm

Sat Aug 1, 12:04pm

Sat Aug 1, 11:05am

Sat Aug 1, 10:05am

Sat Aug 1, 9:04am

Sat Aug 1, 8:04am

Sat Aug 1, 7:04am

Sat Aug 1, 6:04am

Sat Aug 1, 5:04am

Sat Aug 1, 3:04am

Sat Aug 1, 2:04am

Sat Aug 1, 1:04am

Sat Aug 1, 12:05am

Fri Jul 31, 11:05pm

Fri Jul 31, 10:04pm

Fri Jul 31, 9:04pm

Fri Jul 31, 8:05pm

Fri Jul 31, 7:05pm

Fri Jul 31, 6:04pm

Fri Jul 31, 5:04pm

Fri Jul 31, 4:05pm

Fri Jul 31, 3:04pm

Fri Jul 31, 2:05pm

Fri Jul 31, 1:04pm

Fri Jul 31, 12:04pm

Meta data:

ID: f567f8d1-aee6-448f-8566-d084ccca0430
Link: https://api.weather.gov/products/f567f8d1-aee6-448f-8566-d084ccca0430